User: anonymous   Login
Location: Brno
(49.2000°N, 16.6330°E)
Time: 08:40:19
(UTC+02:00)
Language:

Cosmos 1603 - Orbit

View from above orbital plane
View from above orbital plane
View from above satellite
View from above satellite

Ground track
Ground track

The orbit data is extracted from the following two-line orbital elements,

1 15333U 84106A   17147.55153717 -.00000135 +00000-0 -46108-4 0  9992
2 15333 071.0257 135.5851 0021764 242.2545 117.6371 14.14060145685103
Epoch (UTC): 27 May 2017 13:14:12
Eccentricity: 0.0021764
inclination: 71.0257°
perigee height: 830 km
apogee height: 861 km
right ascension of ascending node: 135.5851°
argument of perigee: 242.2545°
revolutions per day: 14.14060145
mean anomaly at epoch: 117.6371°
orbit number at epoch: 68510

The dashed part of the orbit path shows where the satellite is in the earth's shadow,  

DLR